Date String (YYYY-MM-DD hh:mm:ss) UTC,Instrument flags,absolute air pressure of the measurement (hPa),sample flow rate (lpm),inlet stack bypass flow (lpm),air temperature of the measurement (°C),ambient temperature measured by the external sensor (°C),aerosol sample conditioner tube jacket temperature (°C),OPC LED temperature (°C),internal box temperature (°C),relative humidity of the measurement (%),span deviation,mass concentration of particles derived from Lorenz-Mie calculation of OPC scattering (μg/m³),mass concentration of particles derived from Lorenz-Mie calculation of OPC scattering (μg/m³),mass concentration of particles derived from Lorenz-Mie calculation of OPC scattering (μg/m³)
DateTimeUTC,F1_M11,P_M11,Q1_M11,Q2_M11,T1_M11,T2_M11,T3_M11,T4_M11,T5_M11,U1_M11,ZSPAN_M11,X2_M11,X0_M11,X1_M11
2024-01-14 10:00:00,SystemResetWarning,0823.0,5.00,000.00,019.0,018.2,000.0,027.4,020.0,3.8,0000.0,0004.56,0007.69,0004.13
2024-01-14 10:01:00,SystemResetWarning,0823.0,5.00,000.00,018.9,018.0,000.0,027.4,020.0,3.8,0000.0,0004.59,0007.62,0004.15
2024-01-14 10:02:00,SystemResetWarning,0823.0,5.00,000.00,018.9,017.8,000.0,027.4,020.0,3.8,0000.0,0004.60,0007.83,0004.16
2024-01-14 10:03:00,SystemResetWarning,0823.0,5.01,000.00,018.9,018.0,000.0,027.4,020.3,3.8,0000.0,0004.62,0007.92,0004.17
2024-01-14 10:04:00,SystemResetWarning,0822.9,5.01,000.00,019.0,018.7,000.0,027.4,020.8,3.8,0000.0,0004.63,0007.95,0004.16
2024-01-14 10:05:00,SystemResetWarning,0823.0,4.99,000.00,019.2,019.0,000.0,027.4,020.7,3.8,0000.0,0004.65,0008.21,0004.16
2024-01-14 10:06:00,SystemResetWarning,0823.1,4.99,000.00,019.1,018.9,000.0,027.4,020.4,3.8,0000.0,0004.68,0008.68,0004.17
2024-01-14 10:07:00,SystemResetWarning,0822.9,5.01,000.00,019.0,018.7,000.0,027.3,020.1,3.8,0000.0,0004.68,0008.71,0004.16
2024-01-14 10:08:00,SystemResetWarning,0822.9,5.01,000.00,019.0,018.4,000.0,027.3,020.0,3.8,0000.0,0004.67,0008.68,0004.16
2024-01-14 10:09:00,SystemResetWarning,0823.0,4.98,000.00,018.9,018.2,000.0,027.3,020.0,3.8,0000.0,0004.67,0008.69,0004.16
2024-01-14 10:10:00,SystemResetWarning,0822.7,4.99,000.00,018.9,018.1,000.0,027.4,020.0,3.8,0000.0,0004.62,0008.52,0004.15
2024-01-14 10:11:00,SystemResetWarning,0823.1,5.02,000.00,018.9,018.0,000.0,027.4,020.1,3.8,0000.0,0004.62,0008.53,0004.15
2024-01-14 10:12:00,SystemResetWarning,0822.9,5.00,000.00,019.0,018.4,000.0,027.4,020.5,3.8,0000.0,0004.58,0008.54,0004.13
2024-01-14 10:13:00,SystemResetWarning,0822.8,5.00,000.00,019.1,019.0,000.0,027.3,020.9,3.8,0000.0,0004.58,0008.52,0004.14
2024-01-14 10:14:00,SystemResetWarning,0823.2,5.00,000.00,019.2,019.1,000.0,027.3,020.6,3.8,0000.0,0004.61,0008.73,0004.14
2024-01-14 10:15:00,SystemResetWarning,0823.4,4.99,000.00,019.1,018.9,000.0,027.3,020.3,3.8,0000.0,0004.61,0008.68,0004.16
2024-01-14 10:16:00,SystemResetWarning,0822.7,5.00,000.00,019.0,018.6,000.0,027.3,020.1,3.8,0000.0,0004.60,0008.51,0004.17
2024-01-14 10:17:00,SystemResetWarning,0822.8,5.00,000.00,019.0,018.4,000.0,027.3,020.0,3.9,0000.0,0004.61,0008.15,0004.18
2024-01-14 10:18:00,SystemResetWarning,0822.9,5.00,000.00,018.9,018.2,000.0,027.3,020.0,3.9,0000.0,0004.61,0008.56,0004.19
2024-01-14 10:19:00,SystemResetWarning,0822.8,5.01,000.00,018.9,018.0,000.0,027.3,020.0,3.9,0000.0,0004.65,0008.64,0004.21
2024-01-14 10:20:00,SystemResetWarning,0822.8,5.00,000.00,018.9,017.9,000.0,027.4,020.1,3.9,0000.0,0004.66,0008.65,0004.22
2024-01-14 10:21:00,SystemResetWarning,0822.7,5.01,000.00,019.0,018.3,000.0,027.3,020.5,3.9,0000.0,0004.74,0008.93,0004.25
2024-01-14 10:22:00,SystemResetWarning,0822.5,5.01,000.00,019.1,019.0,000.0,027.3,020.9,3.9,0000.0,0004.76,0008.94,0004.27
2024-01-14 10:23:00,SystemResetWarning,0822.9,4.99,000.00,019.2,019.1,000.0,027.3,020.6,3.9,0000.0,0004.78,0008.93,0004.28
2024-01-14 10:24:00,SystemResetWarning,0822.6,5.00,000.00,019.1,018.9,000.0,027.3,020.3,3.9,0000.0,0004.80,0008.93,0004.29
2024-01-14 10:25:00,SystemResetWarning,0822.5,5.02,000.00,019.0,018.6,000.0,027.3,020.0,3.9,0000.0,0004.80,0008.78,0004.29
2024-01-14 10:26:00,SystemResetWarning,0822.4,4.99,000.00,019.0,018.4,000.0,027.3,020.0,3.9,0000.0,0004.80,0008.80,0004.30
2024-01-14 10:27:00,SystemResetWarning,0822.6,4.99,000.00,018.9,018.2,000.0,027.3,020.0,3.9,0000.0,0004.79,0008.83,0004.30
2024-01-14 10:28:00,SystemResetWarning,0822.5,5.01,000.00,018.9,018.1,000.0,027.3,020.0,3.9,0000.0,0004.78,0008.74,0004.29
2024-01-14 10:29:00,SystemResetWarning,0822.4,5.01,000.00,018.9,018.1,000.0,027.3,020.3,4.0,0000.0,0004.78,0008.59,0004.30
2024-01-14 10:30:00,SystemResetWarning,0822.4,4.99,000.00,019.0,018.7,000.0,027.3,020.7,3.9,0000.0,0004.77,0009.09,0004.30
2024-01-14 10:31:00,SystemResetWarning,0822.4,5.00,000.00,019.2,019.2,000.0,027.3,020.8,3.9,0000.0,0004.75,0009.04,0004.29
2024-01-14 10:32:00,SystemResetWarning,0822.4,4.99,000.00,019.1,019.0,000.0,027.3,020.5,3.9,0000.0,0004.70,0008.83,0004.28
2024-01-14 10:33:00,SystemResetWarning,0822.4,4.99,000.00,019.1,018.8,000.0,027.3,020.2,3.9,0000.0,0004.71,0008.84,0004.27
2024-01-14 10:34:00,SystemResetWarning,0822.4,5.01,000.00,019.0,018.6,000.0,027.3,020.0,3.9,0000.6,0004.69,0009.14,0004.26
2024-01-14 10:35:00,SystemResetWarning,0822.4,5.00,000.00,019.0,018.4,000.0,027.3,020.0,4.0,0000.0,0004.70,0009.28,0004.26
2024-01-14 10:36:00,SystemResetWarning,0822.4,5.00,000.00,018.9,018.2,000.0,027.3,020.0,4.0,0000.3,0004.68,0009.07,0004.25
2024-01-14 10:37:00,SystemResetWarning,0822.4,5.00,000.00,018.9,018.0,000.0,027.3,020.0,4.0,0002.0,0004.71,0009.15,0004.26
2024-01-14 10:38:00,SystemResetWarning,0822.4,5.00,000.00,018.9,018.1,000.0,027.3,020.2,4.0,0003.1,0004.71,0009.16,0004.25
2024-01-14 10:39:00,SystemResetWarning,0822.6,5.00,000.00,019.0,018.6,000.0,027.3,020.7,3.9,0001.3,0004.69,0009.10,0004.25
2024-01-14 10:40:00,SystemResetWarning,0822.5,5.00,000.00,019.2,019.1,000.0,027.4,020.8,3.9,0000.0,0004.69,0009.02,0004.25
2024-01-14 10:41:00,SystemResetWarning,0822.4,4.99,000.00,019.2,019.0,000.0,027.4,020.5,3.9,0000.0,0004.66,0008.35,0004.22
2024-01-14 10:42:00,SystemResetWarning,0822.4,4.99,000.00,019.1,018.7,000.0,027.3,020.2,3.9,0000.0,0004.66,0008.36,0004.22
2024-01-14 10:43:00,SystemResetWarning,0822.4,5.00,000.00,019.0,018.5,000.0,027.3,020.0,3.9,0000.0,0004.65,0008.37,0004.20
2024-01-14 10:44:00,SystemResetWarning,0822.4,5.00,000.00,019.0,018.3,000.0,027.3,020.0,4.0,0000.0,0004.62,0008.35,0004.17
2024-01-14 10:45:00,SystemResetWarning,0822.4,4.99,000.00,018.9,018.1,000.0,027.3,020.0,4.0,0000.0,0004.63,0008.05,0004.17
2024-01-14 10:46:00,SystemResetWarning,0822.4,5.00,000.00,018.9,018.0,000.0,027.4,020.0,4.0,0000.0,0004.58,0007.85,0004.16
2024-01-14 10:47:00,SystemResetWarning,0822.4,5.00,000.00,018.9,018.0,000.0,027.4,020.2,4.0,0000.0,0004.55,0007.77,0004.16
2024-01-14 10:48:00,SystemResetWarning,0822.4,5.01,000.00,019.0,018.6,000.0,027.3,020.7,3.9,0000.0,0004.54,0007.80,0004.14
2024-01-14 10:49:00,SystemResetWarning,0822.3,5.01,000.00,019.1,019.1,000.0,027.3,020.9,3.9,0000.0,0004.56,0007.85,0004.14
2024-01-14 10:50:00,SystemResetWarning,0822.3,4.99,000.00,019.2,019.0,000.0,027.3,020.5,3.9,0000.0,0004.58,0007.94,0004.14
2024-01-14 10:51:00,SystemResetWarning,0822.3,4.99,000.00,019.1,018.8,000.0,027.3,020.2,3.9,0000.0,0004.57,0007.86,0004.13
2024-01-14 10:52:00,SystemResetWarning,0822.2,5.02,000.00,019.0,018.6,000.0,027.3,020.0,3.9,0000.0,0004.56,0008.12,0004.13
2024-01-14 10:53:00,SystemResetWarning,0822.2,5.00,000.00,019.0,018.3,000.0,027.3,020.0,4.0,0000.0,0004.58,0008.22,0004.13
2024-01-14 10:54:00,SystemResetWarning,0822.3,4.99,000.00,018.9,018.2,000.0,027.3,020.0,4.0,0000.8,0004.57,0008.16,0004.14
2024-01-14 10:55:00,SystemResetWarning,0822.2,5.00,000.00,018.9,018.0,000.0,027.3,020.0,4.0,0003.5,0004.55,0008.63,0004.14
2024-01-14 10:56:00,SystemResetWarning,0822.2,5.00,000.00,018.9,018.0,000.0,027.3,020.2,4.0,0001.6,0004.49,0008.61,0004.11
2024-01-14 10:57:00,SystemResetWarning,0822.3,5.02,000.00,019.0,018.5,000.0,027.3,020.6,3.9,0003.1,0004.51,0008.64,0004.09
2024-01-14 10:58:00,SystemResetWarning,0822.4,4.99,000.00,019.1,019.1,000.0,027.3,020.9,3.9,0003.3,0004.50,0008.65,0004.09
2024-01-14 10:59:00,SystemResetWarning,0822.4,4.99,000.00,019.2,019.1,000.0,027.3,020.6,3.9,0003.2,0004.49,0008.52,0004.09
